User: anonymous   Login
Location: Oberwangen
(47.4286°N, 8.9679°E)
Time: 21:34:13
(UTC+00:00)
Language:

Cosmos 2369 Rocket - Orbit

View from above orbital plane
View from above orbital plane
View from above satellite
View from above satellite

Ground track
Ground track

The orbit data is extracted from the following two-line orbital elements,

1 26070U 00006B   21265.41328334 -.00000215  00000-0 -85733-4 0  9995
2 26070  71.0008 282.4915 0015095 148.7915 211.4108 14.15471566117982
Epoch (UTC): 22 September 2021 09:55:07
Eccentricity: 0.0015095
inclination: 71.0008°
perigee height: 830 km
apogee height: 851 km
right ascension of ascending node: 282.4915°
argument of perigee: 148.7915°
revolutions per day: 14.15471566
mean anomaly at epoch: 211.4108°
orbit number at epoch: 11798

The dashed part of the orbit path shows where the satellite is in the earth's shadow,  

DLR